Location: Unspecified
(17.6330°N, 0.0000°E)
Time: 01:39:41
(UTC+00:00)

Tiros 1 - All Passes

Search period start: 26 June 2019 00:00
Search period end: 06 July 2019 00:00
Orbit: 631 x 664 km, 48.4° (Epoch: 25 June)

Date Brightness Start Highest point End Pass type
(mag) Time Alt. Az. Time Alt. Az. Time Alt. Az.
26 Jun - 04:39:06 10° NNW 04:43:00 27° NE 04:46:55 10° ESE visible
26 Jun - 06:21:10 10° WNW 06:25:03 27° SW 06:28:58 10° S daylight
26 Jun - 18:41:50 10° S 18:45:59 29° SE 18:50:06 10° ENE daylight
26 Jun - 20:24:02 10° WSW 20:28:05 27° NW 20:32:05 10° NNE visible
27 Jun - 05:04:31 10° NW 05:09:08 82° NE 05:13:45 10° SE visible
27 Jun - 19:07:08 10° SW 19:11:56 88° NW 19:16:41 10° NE visible
27 Jun - 20:53:36 10° NW 20:54:30 10° NW 20:55:23 10° NNW visible
28 Jun - 03:49:14 10° NNW 03:53:00 24° NE 03:56:46 10° E visible
28 Jun - 05:31:03 10° WNW 05:35:06 31° SW 05:39:09 10° S daylight
28 Jun - 17:52:00 10° S 17:56:00 26° SE 17:59:58 10° ENE daylight
28 Jun - 19:33:53 10° WSW 19:38:04 30° NW 19:42:13 10° NNE visible
29 Jun - 04:14:33 10° NW 04:19:10 72° NE 04:23:45 10° SE visible
29 Jun - 18:17:09 10° SW 18:21:56 83° SE 18:26:42 10° NE daylight
29 Jun - 20:02:46 10° WNW 20:04:27 12° NW 20:06:08 10° NNW visible
30 Jun - 02:59:23 10° N 03:03:00 22° NE 03:06:35 10° E visible
30 Jun - 04:40:57 10° WNW 04:45:08 34° SW 04:49:19 10° SSE visible
30 Jun - 17:02:13 10° S 17:06:00 24° SE 17:09:48 10° ENE daylight
30 Jun - 18:43:44 10° WSW 18:48:03 33° NW 18:52:20 10° NNE daylight
01 Jul - 03:24:36 10° NW 03:29:11 64° NE 03:33:45 10° SE visible
01 Jul - 05:09:54 10° WSW 05:11:00 11° SW 05:12:06 10° SW daylight
01 Jul - 17:27:10 10° SW 17:31:56 74° SE 17:36:42 10° NE daylight
01 Jul - 19:12:12 10° WNW 19:14:24 13° NW 19:16:36 10° N visible
02 Jul - 02:09:34 10° N 02:12:59 20° NE 02:16:23 10° E night (unlit)
02 Jul - 03:50:53 10° WNW 03:55:10 39° SW 03:59:27 10° SSE visible
02 Jul - 16:12:26 10° S 16:16:02 21° SE 16:19:37 10° ENE daylight
02 Jul - 17:53:36 10° WSW 17:58:02 37° NW 18:02:26 10° NNE daylight
03 Jul - 02:34:39 10° NNW 02:39:12 57° NE 02:43:43 10° SE night (unlit)
03 Jul - 04:19:09 10° WSW 04:21:02 12° SW 04:22:56 10° SSW night (unlit)
03 Jul - 16:37:12 10° SSW 16:41:57 65° SE 16:46:41 10° NE daylight
03 Jul - 18:21:46 10° WNW 18:24:21 14° NW 18:26:57 10° N daylight
04 Jul - 01:19:45 10° N 01:22:58 18° NE 01:26:10 10° E night (unlit)
04 Jul - 03:00:49 10° WNW 03:05:12 44° SW 03:09:35 10° SSE night (unlit)
04 Jul - 15:22:42 10° S 15:26:03 19° SE 15:29:24 10° E daylight
04 Jul - 17:03:29 10° WSW 17:08:01 41° NW 17:12:32 10° NNE daylight
05 Jul - 01:44:43 10° NNW 01:49:13 50° NE 01:53:41 10° ESE night (unlit)
05 Jul - 03:28:41 10° W 03:31:05 14° SW 03:33:28 10° SSW night (unlit)
05 Jul - 15:47:15 10° SSW 15:51:57 58° SE 15:56:39 10° NE daylight
05 Jul - 17:31:24 10° WNW 17:34:19 16° NW 17:37:14 10° N daylight
